• Processing (Info)

  • MPEC 2019-T212 : 2019 TZ6

    The following Minor Planet Electronic Circular may be linked-to from your own Web pages, but must not otherwise be redistributed electronically.

    A form allowing access to any MPEC is at the bottom of this page.


    Read MPEC 2019-T211 Read MPEC 2019-T213


    M.P.E.C. 2019-T212                             Issued 2019 October 11, 13:38 UT
    
         The Minor Planet Electronic Circulars contain information on unusual
             minor planets and routine data on comets.  They are published
        on behalf of Division F of the International Astronomical Union by the
              Minor Planet Center, Smithsonian Astrophysical Observatory,
                              Cambridge, MA 02138, U.S.A.
    
                 Prepared using the Tamkin Foundation Computer Network
    
                                  MPC@CFA.HARVARD.EDU
                URL https://www.minorplanetcenter.net/    ISSN 1523-6714
    
                                    2019 TZ6                                 
    
    
    Observations:
         K19T06Z* C2019 10 10.30063 03 02 12.83 +04 39 04.0          19.0 GVET212G96
         K19T06Z  C2019 10 10.30726 03 02 18.79 +04 43 37.7                VET212G96
         K19T06Z  C2019 10 10.31204 03 02 23.10 +04 46 55.0          19.0 GVET212G96
         K19T06Z  C2019 10 10.31682 03 02 27.41 +04 50 14.3                VET212G96
         K19T06Z  C2019 10 10.36152203 03 05.25 +05 21 51.3          18.1 GVET212H01
         K19T06Z  C2019 10 10.36627803 03 09.70 +05 25 20.9          18.5 GVET212H01
         K19T06Z  C2019 10 10.37526203 03 18.17 +05 32 00.2          18.4 GVET212H01
         K19T06Z  C2019 10 10.38457803 03 27.05 +05 38 58.5          18.4 GVET212H01
         K19T06Z  C2019 10 10.42741 03 04 12.32 +06 12 24.5          18.8 GVET212I52
         K19T06Z  C2019 10 10.42807 03 04 13.00 +06 12 56.0          18.7 GVET212I52
         K19T06Z  C2019 10 10.42871 03 04 13.66 +06 13 26.5          18.4 GVET212I52
         K19T06Z  C2019 10 10.42935 03 04 14.31 +06 13 57.0          18.6 GVET212I52
         K19T06Z KC2019 10 10.88805303 19 52.32 +14 37 35.4          18.3 GVET212L01
         K19T06Z KC2019 10 10.88835803 19 53.10 +14 38 03.4          18.3 GVET212L01
         K19T06Z KC2019 10 10.89048503 19 58.56 +14 41 20.7          18.2 GVET212L01
         K19T06Z KC2019 10 10.89101903 19 59.92 +14 42 10.2          18.2 GVET212L01
         K19T06Z KC2019 10 10.89387 03 20 06.93 +14 46 25.5                VET212595
         K19T06Z KC2019 10 10.89609403 20 13.08 +14 50 05.2          18.2 GVET212L01
         K19T06Z KC2019 10 10.89663 03 20 14.07 +14 50 45.3          18.6 GVET212595
         K19T06Z KC2019 10 10.89670803 20 14.64 +14 51 02.3          18.2 GVET212L01
         K19T06Z KC2019 10 10.89938 03 20 21.18 +14 55 03.8          18.3 GVET212595
         K19T06Z KC2019 10 10.97712 03 23 59.10 +17 05 00.6          17.9 GVET212204
         K19T06Z KC2019 10 10.98252 03 24 14.99 +17 14 41.4                VET212204
         K19T06Z KC2019 10 10.98784 03 24 30.72 +17 24 17.9                VET212204
    
    Observer details:
    204 Schiaparelli Observatory.  Observer L. Buzzi.  0.84-m f/3.5 reflector + CCD.
    595 Farra d'Isonzo.  Observers E. Pettarin, G. Ierman.  Measurer E. Pettarin.  
        0.61-m f/4.5 reflector + CCD.
    G96 Mt. Lemmon Survey.  Observer G. J. Leonard.  Measurers E. J. Christensen, 
       G. A. Farneth, D. C. Fuls, A. R. Gibbs, A. D. Grauer, H. Groeller, R. A. 
       Kowalski, S. M. Larson, G. J. Leonard, T. A. Pruyne, D. Rankin, R. L. Seaman,
        F. C. Shelly, K. W. Wierzchos.  1.5-m reflector + 10K CCD.
    H01 Magdalena Ridge Observatory, Socorro.  Observers W. H. Ryan, E. V. Ryan.  
        Measurer W. H. Ryan.  2.4-m f/8.9 Ritchey-Chretien + CCD.
    I52 Steward Observatory, Mt. Lemmon Station.  Observer T. A. Pruyne.  Measurers 
       E. J. Christensen, G. A. Farneth, D. C. Fuls, A. R. Gibbs, A. D. Grauer, H. 
       Groeller, R. A. Kowalski, S. M. Larson, G. J. Leonard, T. A. Pruyne, D. 
       Rankin, R. L. Seaman, F. C. Shelly, K. W. Wierzchos.  1.0-m reflector + CCD.
    L01 Visnjan Observatory, Tican.  Observer K. Korlevic.  1.0-m f/2.9 reflector + 
       CCD.
    
    Orbital elements:
    2019 TZ6                                                 Earth MOID = 0.0024 AU
    Epoch 2019 Apr. 27.0 TT = JDT 2458600.5                 Veres
    M 130.82344              (2000.0)            P               Q
    n   0.96426309     Peri.  108.90382     -0.58661687     -0.80789041
    a   1.0147032      Node    17.37547     +0.65343758     -0.51338057
    e   0.3513971      Incl.   10.90842     +0.47843492     -0.28940193
    P   1.02           H   27.7           G   0.15           U   6
    Residuals in seconds of arc
    191010 G96  0.0   0.0     191010 I52  0.1-  0.5-    191010 595  0.6+  0.0
    191010 G96  0.0   0.8+    191010 I52  0.0   0.4-    191010 L01  0.3+  0.1+
    191010 G96  0.0   0.0     191010 I52  0.1+  0.3-    191010 595  0.4+  1.2+
    191010 G96  0.0   0.2+    191010 I52  0.0   0.3-    191010 L01  0.2-  0.4-
    191010 H01  0.1-  0.1+    191010 L01  0.1-  0.1+    191010 595  0.1-  0.9+
    191010 H01  0.0   0.0     191010 L01  0.1-  0.1-    191010 204  0.2-  0.8-
    191010 H01  0.0   0.1+    191010 L01  0.2-  0.3-    191010 204  0.2+  0.0
    191010 H01  0.1-  0.0     191010 L01  0.4-  0.5-    191010 204  0.2-  0.1+
    
    Ephemeris:
    2019 TZ6                 a,e,i = 1.01, 0.35, 11                  q = 0.6581
    Date    TT    R. A. (2000) Decl.     Delta      r    Elong.  Phase     V
    2019 09 11    02 19 57.4 -11 45 59   0.2162  1.1669   133.7    38.6    26.3
    ...
    2019 09 26    02 30 57.0 -11 32 17   0.1079  1.0905   142.5    34.0    24.5
    ...
    2019 10 04    02 36 33.3 -09 57 54   0.05285 1.0454   147.2    31.2    22.7
    ...
    2019 10 10    02 57 00.4 +01 50 57   0.01269 1.0098   150.3    29.3    19.5
    2019 10 11    03 24 38.2 +17 55 57   0.0065321.0038   143.7    36.0    18.3
    2019 10 12    09 51 09.3 +66 57 57   0.0039120.9977    81.9    97.9    19.2
    ...
    2019 10 18    14 23 11.7 +17 41 23   0.04203 0.9604    30.1   148.6    28.9
    ...
    2019 10 26    14 26 51.1 +14 29 38   0.09706 0.9094    27.5   149.7    30.8
    ...
    2019 11 10    14 27 07.6 +10 48 59   0.2095  0.8131    28.8   144.1    31.3
    
    A. U. Tomatic                (C) Copyright 2019 MPC           M.P.E.C. 2019-T212
    


    Read MPEC 2019-T211 Read MPEC 2019-T213


    MPEC number:

    Enter an MPEC number in one of the following forms:

    • 1997-B01 (the full form)
    • J97B01 (the packed version of the full form)
    • B01 (the abbreviated form)